Wind_Speed
15 20 23 25 27 27 28 28 28 28 29 30 31 31 33 33 32 31 31 30 29 29 28 26 24 22 21 22 22 22 21 22 21 21 20 21 22 21 17 16 17 18 16 12 10 8 6 6 5 5 5 7 7 6 6 5 5 5 7 7 7 8 7 6 6 8 8 7 11 11 8 5 5 7 13 11 11 12 11 11 12 12 12 13 12
9 13 18 22 24 26 27 27 27 28 29 30 32 33 34 33 33 32 32 31 31 30 29 27 26 24 22 22 22 22 22 22 21 20 20 20 21 20 18 14 14 16 12 8 8 7 5 5 4 6 7 10 10 8 6 5 3 4 5 6 6 7 7 7 7 6 4 4 7 8 7 5 5 8 13 10 11 11 10 11 12 13 12 12 12
8 10 14 19 23 25 26 26 28 29 30 31 33 33 34 33 34 33 33 33 32 31 30 28 27 25 24 22 21 21 21 21 19 18 18 19 19 18 17 14 13 12 8 7 8 7 6 6 6 7 9 12 12 9 6 4 4 4 6 7 6 6 6 5 4 2 2 3 3 2 3 4 2 6 10 8 9 10 10 11 13 14 13 13 13
10 10 12 17 20 22 24 26 28 28 29 30 32 33 33 34 35 34 34 34 32 31 30 29 27 25 24 22 20 18 18 17 16 17 18 18 18 17 16 14 12 9 8 9 9 7 6 7 7 9 9 11 10 9 7 6 6 6 6 6 5 6 5 4 2 1 1 2 2 0 1 1 0 4 8 5 6 8 11 13 14 15 14 14 14
12 12 11 14 18 21 25 27 28 28 29 31 33 34 34 35 36 35 35 34 33 31 30 28 27 25 22 20 16 13 13 13 13 15 16 15 16 16 16 15 12 10 10 10 8 7 7 7 8 9 9 8 9 10 9 6 5 5 5 4 4 5 4 4 2 1 1 1 1 1 0 0 1 3 5 3 4 6 9 13 14 15 14 15 16
13 13 13 14 18 21 24 26 27 28 31 33 34 35 35 35 35 35 35 34 34 32 30 29 28 26 23 20 16 13 12 13 13 12 13 14 15 15 15 15 13 13 12 11 8 7 7 8 8 8 8 8 9 10 8 6 5 4 3 2 2 2 3 4 3 1 1 2 2 1 1 1 1 1 1 2 5 5 5 10 12 14 14 15 17
12 13 13 14 18 20 21 25 28 30 33 34 34 34 34 34 35 35 35 34 34 32 30 28 28 27 25 23 21 19 17 16 14 11 12 13 13 14 15 16 15 14 13 11 9 8 7 8 8 8 8 9 9 9 8 6 5 4 4 3 1 2 3 4 4 3 2 3 3 1 1 1 1 0 1 1 4 4 6 9 10 12 13 14 17
13 13 13 15 19 22 24 27 30 32 33 32 32 33 34 35 35 35 35 34 33 32 30 29 28 27 26 25 24 23 21 18 15 13 12 13 13 14 16 17 16 14 12 10 8 8 9 9 8 8 8 8 8 7 7 6 5 5 5 4 3 4 4 4 4 4 2 3 3 2 1 0 0 1 2 1 1 2 6 7 10 13 12 12 14
14 15 15 16 20 26 29 29 31 32 31 30 33 34 34 35 35 34 34 34 34 32 31 29 28 28 27 26 25 24 22 19 16 14 14 15 15 15 16 17 15 13 11 9 9 9 10 9 9 8 8 7 7 6 6 6 6 6 5 4 3 3 4 4 3 3 2 2 2 2 2 1 1 1 1 1 1 1 2 3 8 14 12 11 12
14 15 15 18 24 28 29 29 29 30 30 32 34 34 35 35 35 34 34 34 34 33 32 31 29 29 28 27 26 25 23 20 17 16 17 18 17 17 17 17 15 13 11 10 10 11 11 10 8 7 7 7 7 6 6 6 6 6 5 3 2 1 1 2 1 1 1 2 1 2 3 2 2 2 2 1 0 1 2 4 7 8 8 11 12
14 15 15 20 26 27 25 26 27 29 30 31 32 33 34 35 35 35 34 35 34 33 32 31 30 30 30 29 28 28 25 23 20 18 19 20 20 19 18 17 15 13 13 13 12 12 11 10 8 7 7 7 7 6 5 4 5 5 4 2 1 1 1 1 1 1 2 3 2 3 3 4 4 5 6 6 4 3 2 4 7 8 7 9 12
14 14 14 16 19 20 22 25 27 29 30 30 32 32 33 34 35 35 34 34 35 34 33 32 31 32 32 31 30 30 27 25 24 23 22 23 23 21 20 18 16 15 14 14 14 13 12 11 9 7 7 7 7 6 5 5 4 4 4 3 2 1 1 0 1 2 3 3 3 3 3 5 6 6 7 7 7 6 4 3 5 8 7 8 12
15 14 14 14 13 15 21 24 26 28 30 32 33 32 33 34 35 36 36 35 35 35 34 33 33 33 34 33 32 31 29 27 27 26 25 25 25 23 21 19 18 17 16 15 15 14 13 12 10 8 8 7 7 7 7 6 5 5 5 5 5 4 3 2 2 2 4 4 5 5 5 6 7 6 7 8 8 8 6 4 4 4 4 8 12
15 14 15 14 14 17 21 25 26 28 30 32 33 34 34 34 35 37 37 36 35 36 35 35 35 35 35 34 33 32 30 29 28 27 26 26 26 24 22 20 20 19 18 16 15 14 14 13 11 9 8 7 7 7 7 6 6 6 6 7 7 6 6 5 5 5 6 7 8 9 9 9 9 8 9 10 10 9 8 7 4 3 5 7 9
14 15 15 15 17 21 24 26 27 29 31 32 33 34 35 35 37 38 38 37 36 37 37 37 37 36 35 35 34 34 31 29 28 27 26 26 25 24 22 22 21 20 18 16 15 15 14 13 12 10 9 8 7 7 7 7 7 7 8 8 8 8 8 8 8 9 9 10 11 12 12 12 12 11 12 12 13 12 11 10 7 3 3 4 5
13 14 15 16 19 23 25 26 28 29 30 32 33 34 36 38 38 39 40 39 36 37 38 38 37 36 36 36 35 34 31 29 28 27 25 25 24 23 22 22 21 20 18 17 16 15 15 14 14 13 12 10 9 8 8 8 9 9 9 9 9 9 9 10 10 11 12 12 13 14 15 16 15 14 14 15 15 14 14 13 11 7 4 2 2
14 15 15 16 18 22 25 27 28 29 30 32 35 37 39 40 39 39 40 39 37 39 39 38 37 36 36 36 35 33 31 29 28 25 24 23 22 22 21 21 20 19 18 18 17 16 15 15 15 13 13 12 11 10 10 10 10 11 11 11 10 10 10 11 12 13 13 14 14 15 16 17 17 17 17 17 17 17 16 16 15 13 8 4 1
15 15 15 15 16 21 26 28 31 33 34 36 39 41 41 40 40 39 39 40 40 40 38 37 37 35 34 34 33 32 31 29 27 24 22 22 22 22 20 19 20 19 18 17 16 16 15 15 14 14 13 13 12 12 11 11 12 12 12 12 12 11 12 12 12 13 14 14 14 15 16 18 18 18 19 20 20 19 19 18 17 16 14 10 6
13 14 14 13 15 20 25 28 31 34 36 38 40 40 38 38 39 39 40 42 40 37 36 36 35 34 34 33 34 34 32 30 28 25 23 23 23 22 20 18 19 18 17 16 16 16 16 15 15 14 14 13 13 13 12 12 13 13 13 13 12 12 13 13 13 14 14 15 15 16 16 18 19 19 20 21 21 21 21 20 19 18 18 17 15
13 13 14 15 16 21 27 30 32 35 37 38 38 37 38 39 39 39 40 40 36 35 36 36 35 35 35 35 36 36 35 33 31 28 26 25 24 21 19 18 19 18 17 16 17 16 16 15 15 15 15 15 15 14 13 13 14 14 13 13 13 13 14 15 15 15 15 16 17 18 18 18 18 19 19 20 22 23 22 22 21 22 21 20 19
13 14 15 16 16 21 28 31 33 35 36 36 35 35 38 39 38 39 39 38 37 36 37 37 36 35 36 37 38 37 36 34 32 29 27 25 23 20 18 18 19 18 17 17 17 17 16 16 16 16 16 16 15 15 14 14 14 14 13 13 13 13 15 16 16 16 17 17 18 19 18 17 17 18 18 19 21 23 24 24 24 23 23 21 19
14 15 15 14 14 19 25 28 29 30 30 32 33 35 36 37 38 39 39 38 39 39 39 39 36 36 38 39 39 39 37 36 33 30 28 27 24 21 19 19 19 19 18 18 18 18 17 17 17 17 17 16 16 15 14 14 14 14 14 13 13 14 15 16 17 18 18 18 18 18 17 16 16 17 17 17 19 22 23 25 26 25 24 23 23
14 13 13 13 14 19 23 26 27 29 30 33 34 35 37 38 40 39 39 40 42 41 40 38 36 37 39 40 41 40 39 37 35 34 32 28 25 23 21 21 21 20 20 19 19 19 18 18 18 18 17 17 16 15 14 14 14 14 14 13 13 14 15 17 18 18 18 17 17 17 17 15 15 16 16 15 17 19 22 25 27 26 25 26 27
12 12 12 11 12 16 18 20 24 27 30 32 34 36 37 37 38 38 39 41 42 40 37 35 36 39 40 40 41 41 41 40 39 37 33 28 26 25 23 23 23 22 22 22 20 19 19 19 19 18 17 17 16 16 15 14 15 14 14 14 14 15 16 18 18 18 17 17 17 17 16 15 15 15 15 15 15 17 20 22 25 26 26 28 29
10 11 11 11 12 12 13 17 22 25 28 30 33 34 34 34 35 36 38 40 41 39 36 36 38 39 38 39 39 40 40 40 38 36 33 29 28 27 25 24 24 24 25 24 22 20 20 20 19 17 16 16 16 16 16 15 15 14 14 15 15 16 17 17 18 17 16 16 16 17 17 15 16 16 15 15 15 16 18 20 22 24 25 26 28
12 12 12 12 11 11 13 16 21 25 27 29 30 31 32 33 34 37 38 39 40 39 38 38 39 39 38 38 38 37 36 36 36 34 31 29 28 28 26 25 25 25 26 25 23 21 21 20 18 16 16 18 18 18 18 17 16 16 16 16 16 17 17 17 18 18 17 17 18 18 18 17 16 17 16 16 16 16 18 20 20 22 23 24 26
10 10 10 11 11 12 14 16 20 24 27 28 29 30 31 32 34 38 39 39 39 39 39 40 39 37 35 33 34 34 35 37 36 32 29 29 29 29 26 24 24 25 26 26 24 22 21 19 18 17 18 19 20 20 19 18 17 17 17 17 18 18 18 18 19 19 19 19 19 19 19 19 18 18 19 18 18 18 18 20 21 21 21 23 24
8 9 10 11 12 13 13 14 19 23 25 27 28 29 31 33 35 37 38 39 39 39 40 40 38 36 35 38 41 41 40 38 32 28 27 28 28 27 23 21 24 27 26 25 24 22 20 19 17 17 18 19 20 20 19 19 19 18 18 19 19 19 19 20 20 21 21 20 20 20 20 20 19 20 21 20 20 19 20 21 21 21 21 22 23
11 11 11 11 12 13 12 13 17 20 23 24 25 27 29 31 33 35 37 39 39 38 39 39 37 36 36 38 39 35 29 24 19 18 18 17 18 21 21 22 25 28 26 24 22 20 18 17 17 17 18 19 20 20 20 19 19 19 19 20 20 19 20 21 22 22 21 21 21 21 20 19 19 19 20 21 21 21 21 21 22 22 23 23 22
13 11 11 12 12 12 11 11 13 18 22 23 25 28 30 32 35 35 37 39 39 37 36 32 30 29 29 29 26 21 17 16 17 15 11 7 9 14 18 21 24 27 26 22 21 19 17 16 17 18 19 20 21 22 21 20 19 19 20 21 21 22 22 22 23 23 23 23 21 21 20 19 18 19 20 21 22 21 20 20 21 22 23 24 23
11 10 10 11 10 9 9 9 12 17 21 23 26 28 29 31 32 34 37 39 37 33 30 28 28 27 26 23 17 14 13 15 19 21 19 15 14 17 17 16 18 22 22 20 20 18 16 17 19 19 20 21 23 23 21 20 20 21 22 22 23 25 25 25 26 25 25 24 22 21 21 19 19 19 20 20 20 20 19 19 20 22 22 22 23
10 11 11 11 10 10 10 11 13 18 21 23 25 25 26 30 32 34 37 34 30 29 28 29 29 26 24 21 17 16 14 13 17 24 27 26 25 22 18 16 16 17 16 17 18 18 17 20 22 22 22 23 24 23 22 22 23 23 23 24 25 27 29 30 29 27 25 23 22 22 21 20 20 20 20 20 19 19 19 19 20 21 21 21 21
12 12 11 11 11 10 11 13 15 18 20 21 22 23 26 29 29 29 27 24 26 29 27 24 23 23 24 24 22 20 19 16 17 24 28 28 26 20 17 19 19 16 16 18 19 19 21 25 25 24 24 25 24 23 22 23 24 24 24 25 26 29 31 32 31 28 24 22 21 22 21 20 19 18 19 20 19 19 19 19 21 22 23 21 20
9 10 10 10 8 6 7 10 11 13 13 14 18 22 24 23 22 21 20 22 26 27 23 20 22 24 26 26 24 23 21 18 22 28 28 24 20 16 16 18 19 17 16 19 22 22 25 27 27 26 26 26 25 23 23 24 26 27 26 26 28 30 31 31 30 26 22 20 21 21 20 19 18 17 19 19 18 19 20 21 22 23 23 22 20
8 8 7 6 5 4 4 8 11 12 13 16 21 24 23 20 20 21 22 24 26 24 21 22 25 26 27 27 26 25 24 24 26 27 23 19 16 15 16 17 18 18 16 19 23 25 25 26 27 27 26 27 26 24 24 26 27 29 29 29 30 31 30 29 26 23 21 20 21 20 18 18 17 16 18 19 18 20 21 21 22 22 22 22 19
8 8 8 8 10 11 12 13 14 16 19 21 22 22 21 20 21 22 23 24 24 22 21 23 27 29 31 31 30 29 28 26 21 16 14 15 14 15 18 19 19 19 19 22 25 25 24 25 26 27 26 27 27 26 25 25 26 29 30 30 30 29 27 24 21 20 20 20 19 17 16 16 15 15 18 19 19 19 19 18 18 19 20 21 20
7 7 9 12 14 15 14 13 13 15 19 19 18 18 19 19 20 22 23 23 22 21 22 25 29 32 32 30 29 27 24 18 10 7 9 12 15 18 20 22 21 22 23 23 21 20 21 22 23 23 23 24 23 21 19 20 23 26 27 27 27 26 24 20 18 18 20 19 16 14 14 14 14 16 17 18 17 16 14 14 16 17 20 22 23
5 6 9 10 11 11 10 10 11 13 15 14 13 16 18 19 21 22 23 22 22 23 25 27 28 29 29 28 28 26 21 13 11 14 16 19 25 26 23 22 24 25 23 17 14 15 17 18 20 20 18 15 13 11 11 15 18 20 23 26 25 22 19 16 16 18 19 17 14 12 12 13 14 16 17 16 16 14 13 14 16 17 19 21 21
7 9 13 14 12 11 10 8 8 9 9 9 11 15 18 19 21 22 23 23 23 24 27 28 29 31 33 31 30 27 21 16 15 15 16 21 24 22 17 16 18 18 14 11 11 12 13 15 16 15 10 7 8 9 10 13 16 19 24 25 22 18 16 15 16 18 18 16 13 11 11 12 14 15 16 15 16 15 14 15 16 15 15 16 17
10 14 19 19 14 12 12 9 6 6 7 9 13 17 18 18 19 21 22 21 22 25 27 31 33 35 34 31 30 28 24 20 16 11 13 17 16 11 6 5 6 7 7 8 8 7 9 9 8 8 7 6 11 14 16 18 22 25 25 21 17 15 15 15 16 17 16 14 13 11 11 12 13 14 15 15 15 15 15 15 14 13 13 15 17
13 16 19 19 14 12 12 9 4 5 8 11 14 17 17 18 19 20 19 17 20 24 27 30 33 35 33 31 31 29 25 22 13 3 3 8 9 8 5 5 4 3 5 7 6 5 2 4 7 8 7 8 13 16 18 22 26 24 20 15 13 13 13 13 14 15 14 13 13 12 11 12 13 14 14 14 14 14 14 14 14 14 14 16 18
17 18 16 16 16 13 11 9 4 6 9 11 14 16 17 17 18 16 14 17 22 26 29 32 33 34 34 33 31 26 21 18 10 2 4 2 6 7 5 4 2 4 6 5 2 1 2 7 9 10 11 14 18 18 18 20 21 19 15 11 11 12 12 13 13 13 13 13 12 12 12 13 13 13 12 11 11 12 13 13 14 14 15 16 17
14 16 13 12 13 11 11 10 6 6 9 12 15 15 14 14 13 13 15 21 26 29 32 34 35 36 35 34 29 23 18 16 11 5 1 3 4 7 6 4 3 4 9 8 5 5 8 13 16 17 19 22 21 19 19 19 17 15 12 10 11 11 12 13 12 12 12 12 11 11 12 13 12 11 9 9 10 11 12 13 14 14 14 15 15
12 12 11 11 11 12 13 12 7 8 11 15 17 16 15 15 15 16 20 25 28 32 34 34 35 35 34 31 28 23 20 17 13 9 4 3 5 6 7 6 8 12 11 8 7 10 16 20 21 22 25 25 21 18 17 16 15 12 10 10 10 11 12 12 11 11 11 11 11 11 11 10 9 7 7 8 9 10 11 11 12 13 13 13 13
13 14 16 15 13 13 13 10 8 10 14 17 18 19 19 19 19 21 24 27 30 33 33 32 32 31 30 29 28 25 20 17 14 12 11 10 10 10 13 14 15 15 13 11 12 16 20 21 22 23 23 23 20 18 16 14 12 11 10 10 10 11 11 11 10 10 10 10 10 9 8 7 6 6 7 8 9 9 9 10 10 11 11 11 11
12 14 16 16 14 12 11 11 11 12 14 17 18 20 21 22 23 23 25 27 30 32 30 29 30 29 26 26 26 24 18 13 11 11 12 12 14 17 20 21 19 17 16 18 19 19 19 21 21 21 21 20 19 17 14 12 11 10 10 11 11 11 11 10 9 9 10 10 9 8 6 6 5 6 6 7 8 7 7 7 8 8 9 9 9
9 11 14 14 13 11 10 10 11 12 15 17 18 20 21 22 24 24 25 27 29 30 28 27 28 26 23 22 23 22 17 13 13 14 14 12 11 14 18 21 20 20 21 22 21 20 19 19 20 20 19 18 17 16 13 12 12 12 12 12 11 11 10 9 8 8 9 9 8 6 5 5 5 5 6 6 5 4 4 5 6 7 7 8 8
6 8 10 10 10 9 10 11 13 14 16 17 18 19 20 21 22 24 26 27 27 27 27 27 27 26 24 23 23 22 20 18 18 17 15 12 11 13 16 18 18 20 23 24 23 21 19 19 20 20 18 17 16 15 13 13 14 14 14 13 12 11 9 8 7 8 9 8 7 5 5 5 5 4 4 4 3 3 4 5 6 7 8 9 8
5 5 5 6 8 10 12 14 16 17 18 18 19 20 20 21 22 25 27 27 26 27 28 28 29 28 27 26 26 25 24 23 22 19 18 16 15 16 19 19 18 20 23 23 20 19 19 19 20 20 19 18 16 14 13 13 15 14 13 12 11 10 9 8 8 8 7 7 8 7 5 4 3 2 2 3 4 5 6 7 8 9 10 11 11
4 3 2 1 4 9 13 16 17 19 19 19 19 20 21 23 24 26 28 28 28 28 27 28 28 28 28 29 29 26 24 24 22 21 21 18 13 13 17 19 17 19 20 18 16 17 19 19 20 20 19 16 14 13 13 13 14 14 13 11 10 10 9 8 7 6 5 7 9 7 4 3 1 0 2 3 5 6 7 9 10 11 12 13 13
3 1 2 3 6 10 14 16 18 20 20 20 20 21 22 24 26 28 28 28 30 29 26 24 24 25 26 28 27 23 20 18 17 17 18 16 12 10 12 14 15 16 18 18 19 20 20 19 19 19 17 15 14 13 13 13 13 13 12 11 11 10 9 8 6 5 7 8 7 5 3 2 1 1 2 4 5 6 7 9 11 12 13 13 13
Wind_Direction
208 206 209 210 211 212 211 212 212 212 213 211 211 212 214 214 214 217 219 221 222 223 225 226 228 231 233 237 242 243 246 250 251 254 258 260 264 267 257 244 242 245 250 254 255 253 250 248 256 275 289 296 296 302 314 313 302 297 299 300 309 312 311 328 330 322 329 343 344 342 358 36 105 62 36 55 63 49 50 47 44 44 45 47 44
204 206 210 209 210 210 209 210 210 210 211 210 211 213 215 214 215 218 220 221 224 225 227 228 230 233 237 241 243 243 247 252 253 253 255 256 258 261 261 253 245 249 252 243 237 235 234 242 264 282 290 293 294 299 304 298 283 286 292 289 299 309 309 321 320 315 325 336 334 331 353 37 104 50 38 61 64 53 56 50 44 41 43 46 41
207 210 210 210 210 207 206 208 209 211 211 211 212 214 215 214 217 219 220 223 225 227 228 230 233 236 240 243 245 245 249 253 255 255 254 254 253 253 257 254 243 245 239 216 216 219 227 243 262 271 281 287 289 295 293 274 259 257 269 278 290 304 307 325 329 311 307 320 333 327 348 11 66 24 19 43 55 54 55 47 40 39 45 48 44
213 215 211 211 211 207 205 206 208 210 211 211 212 213 214 215 217 218 220 223 226 228 229 232 234 235 236 239 243 245 249 254 256 256 255 253 253 251 250 244 237 234 219 206 208 214 230 247 262 268 272 276 279 286 283 264 251 248 256 259 267 283 295 319 356 35 338 323 354 56 46 8 37 350 346 2 41 44 41 36 35 37 42 44 41
209 213 213 209 210 208 207 206 206 206 209 211 212 212 214 215 217 218 220 223 226 228 229 230 229 228 228 229 233 237 241 246 249 249 247 245 244 241 238 235 228 218 204 201 207 224 244 254 263 264 260 261 268 277 276 262 252 256 265 256 248 260 276 292 289 31 0 289 294 241 134 43 193 339 331 323 4 20 27 25 30 35 38 38 35
208 210 210 208 211 211 208 207 205 205 209 211 212 213 214 216 217 219 220 223 226 227 227 226 224 223 222 219 217 218 221 229 237 240 234 229 227 223 222 221 213 204 199 202 210 225 240 246 249 251 254 260 266 271 267 258 257 266 274 264 256 256 265 281 276 293 301 213 194 206 234 267 241 320 328 309 334 346 9 15 25 31 33 34 31
209 211 208 207 209 210 208 207 205 206 210 211 212 213 213 215 218 219 221 222 225 226 224 223 222 222 222 222 222 221 221 228 238 242 232 224 220 212 207 203 198 197 198 198 202 216 229 231 234 242 252 257 260 265 265 260 264 270 260 237 220 231 243 266 278 297 272 194 176 177 218 261 259 212 144 308 328 323 336 356 14 23 29 30 27
204 208 209 207 207 207 208 208 207 208 209 209 210 212 213 215 219 221 221 222 224 224 223 223 223 222 222 224 226 227 230 237 243 241 228 218 213 205 197 193 191 192 193 195 202 216 222 220 224 233 239 243 249 258 261 260 263 264 254 240 237 242 246 258 277 298 274 199 180 167 142 80 338 106 116 141 197 279 321 341 351 357 15 29 27
201 204 208 209 209 208 208 209 209 210 209 208 210 212 214 216 219 222 222 222 224 224 224 225 226 226 226 225 226 230 235 239 241 235 218 208 204 197 191 189 187 185 187 198 209 211 212 214 219 227 234 239 242 247 251 250 245 241 238 235 239 242 243 251 276 304 271 208 184 154 120 89 118 126 57 15 158 226 290 315 331 340 353 9 20
202 204 207 210 212 211 210 209 210 210 209 210 212 213 214 217 219 220 221 223 224 224 224 225 227 227 227 227 228 231 234 233 233 227 212 204 201 195 190 188 185 186 191 201 207 205 206 210 215 223 230 230 231 238 242 240 232 226 226 225 227 231 225 238 282 311 232 198 170 152 143 145 168 194 238 253 202 252 282 293 310 326 331 338 357
201 204 207 211 213 212 209 208 209 210 210 211 212 213 214 217 219 221 222 223 224 224 224 224 226 227 228 229 231 232 232 228 225 219 208 202 202 197 192 190 190 194 198 201 203 201 202 206 210 217 219 218 224 229 227 225 222 216 214 214 201 152 161 212 268 270 225 204 193 185 181 182 195 214 219 217 215 217 248 292 303 314 304 306 331
199 203 206 208 210 208 205 207 209 208 209 210 211 213 214 216 219 221 222 221 222 223 223 224 225 226 229 230 232 232 229 225 222 217 209 204 202 198 194 193 195 198 199 200 201 200 202 204 205 210 213 213 216 214 210 213 213 209 211 218 218 201 179 236 281 268 235 222 223 224 218 213 220 226 220 218 222 224 225 241 284 308 307 299 315
198 199 203 203 201 202 203 205 206 206 207 209 210 212 213 215 217 220 221 220 220 221 221 223 225 226 228 228 230 229 226 225 223 217 211 206 202 198 197 196 197 198 199 201 202 202 204 204 206 211 211 211 213 212 214 216 216 219 223 227 233 236 233 243 269 261 248 249 252 251 250 245 245 244 233 232 234 227 226 235 259 270 270 294 308
198 199 200 199 198 200 203 204 204 205 207 207 208 210 212 215 216 219 222 221 220 221 221 222 224 226 227 227 228 224 222 224 222 216 211 208 204 203 204 205 203 201 202 205 206 206 205 207 212 214 207 207 213 218 224 226 228 234 239 246 253 257 255 254 258 253 251 257 260 261 263 262 259 254 244 243 244 236 231 239 248 244 245 270 291
199 200 200 199 197 199 202 203 204 206 207 207 208 209 210 215 217 218 221 221 220 221 221 222 223 225 226 226 224 222 222 222 219 216 213 209 208 209 210 210 208 206 208 211 212 209 208 210 216 217 213 211 213 222 232 238 245 250 255 265 271 275 274 270 270 267 264 262 263 266 269 268 267 262 255 252 253 255 257 256 248 235 257 257 262
200 202 201 200 198 199 201 202 204 206 207 207 208 209 210 214 217 219 222 222 221 221 221 222 223 224 224 223 222 220 220 218 213 212 213 212 212 213 212 212 211 212 213 214 212 211 211 213 218 222 222 220 220 229 239 247 257 260 263 271 274 275 276 275 276 276 275 274 271 271 270 271 272 269 264 262 262 264 266 266 257 236 230 262 267
199 202 201 200 198 199 200 201 203 205 206 208 210 211 212 214 216 219 222 223 222 222 222 222 222 223 223 222 220 218 216 213 211 212 213 214 215 216 215 214 213 214 214 213 214 215 214 214 220 225 225 226 229 237 245 254 262 263 265 270 272 275 278 277 277 277 279 280 278 275 272 272 274 272 268 263 262 264 263 263 263 250 233 224 257
197 201 201 201 198 198 199 200 202 204 206 209 211 213 214 215 217 219 221 223 223 222 221 222 221 221 222 221 218 216 215 214 215 216 215 215 216 216 216 216 215 215 215 215 217 217 215 218 226 230 229 231 236 242 250 257 261 262 264 269 272 278 281 280 279 280 284 287 286 283 278 275 275 273 270 263 258 260 260 259 261 257 246 236 230
194 198 200 202 201 200 199 200 203 205 208 210 212 213 214 216 218 219 222 224 224 222 221 222 221 221 222 221 219 217 216 216 216 216 215 216 216 216 218 219 216 214 215 217 218 217 217 223 229 232 233 238 242 247 254 258 260 260 263 268 271 276 280 282 282 284 288 291 292 291 286 283 282 278 274 266 257 255 256 256 257 254 250 249 246
193 195 199 200 201 202 199 200 202 204 208 211 211 212 213 216 218 219 222 225 225 223 221 221 221 220 221 221 219 218 217 217 216 214 213 215 216 219 224 221 215 214 217 219 220 219 220 224 228 232 236 243 246 250 256 259 260 260 262 267 270 273 280 285 286 285 287 288 289 292 293 292 291 286 279 269 259 255 255 253 254 253 251 252 252
194 194 199 200 199 201 202 203 204 204 207 210 210 211 213 215 216 218 220 221 223 223 222 220 219 218 219 219 219 218 217 218 215 213 213 213 214 220 226 222 215 215 218 219 220 220 220 222 226 233 240 245 250 254 258 257 256 257 260 264 266 272 280 284 286 284 282 282 286 291 294 294 293 289 283 274 264 257 255 252 250 250 249 250 253
197 196 197 197 197 201 203 205 205 206 207 208 209 211 213 214 215 217 218 219 221 222 221 220 218 217 218 219 219 219 219 217 213 214 215 213 214 218 220 218 215 216 217 218 219 218 219 222 225 233 241 247 252 255 254 253 254 256 258 260 266 275 281 283 282 281 281 282 287 291 292 290 290 288 283 278 270 262 257 254 250 247 248 253 258
197 196 195 195 197 199 200 202 204 205 206 207 208 209 212 213 214 214 216 218 220 222 221 219 216 217 219 218 219 219 219 216 213 214 214 212 213 214 214 214 214 214 214 214 216 217 219 223 227 234 241 247 253 253 251 252 255 256 257 260 270 279 281 280 278 281 283 285 287 288 287 288 289 289 286 283 277 269 262 257 253 249 250 258 263
196 196 197 197 198 197 198 202 204 205 207 207 208 210 211 213 212 213 215 218 220 220 220 218 216 219 220 219 219 218 216 215 214 214 211 212 215 214 212 213 213 211 211 211 213 216 220 225 228 233 241 247 251 252 253 254 254 254 258 266 275 278 277 277 278 282 284 285 286 284 284 288 289 289 291 290 283 276 270 263 259 257 257 261 264
196 196 197 198 197 194 197 204 204 206 208 208 209 211 211 212 212 213 215 218 219 219 218 218 218 218 218 219 220 219 217 215 214 212 210 211 215 215 214 214 214 212 210 210 211 214 220 224 226 232 241 247 251 254 256 256 255 257 263 269 274 275 274 276 279 282 282 282 285 285 284 286 287 289 294 295 290 285 279 273 267 266 266 266 267
200 195 196 199 196 196 200 203 205 206 209 210 210 211 211 212 212 213 216 217 217 217 216 217 217 217 217 218 219 219 218 216 215 214 214 214 215 217 218 217 217 216 213 212 211 213 218 221 225 233 241 248 253 256 258 258 258 260 265 269 272 272 273 275 276 276 276 278 281 285 286 285 284 287 291 295 294 290 285 281 276 275 275 273 272
206 195 198 196 195 202 202 201 205 208 209 210 209 210 210 210 212 214 216 216 216 216 215 217 218 217 215 217 221 221 221 221 219 216 217 220 218 217 219 223 226 223 218 215 212 212 217 220 224 234 242 249 254 256 257 257 258 261 266 269 271 272 273 273 273 272 273 276 280 284 287 286 283 283 286 290 292 291 289 286 284 283 281 277 274
212 201 201 197 200 205 201 201 205 207 209 210 209 210 209 209 212 213 214 216 216 215 215 216 217 215 213 216 220 221 220 222 221 215 218 223 221 217 219 231 238 234 226 221 217 215 216 218 225 235 243 250 253 254 255 255 258 263 267 270 271 274 276 274 272 273 274 276 279 282 285 285 284 283 284 286 288 289 289 287 285 286 283 278 275
209 203 201 200 206 206 199 202 204 203 206 207 208 210 210 211 214 214 215 216 215 214 215 216 216 216 216 217 219 219 216 213 207 201 206 218 225 224 225 233 241 240 236 229 223 221 218 218 226 238 245 250 251 251 253 255 259 265 269 273 277 279 280 277 275 275 276 276 278 280 283 284 285 285 285 285 286 285 283 282 282 283 281 278 275
205 201 202 206 210 208 200 200 201 202 203 203 205 207 207 209 212 213 215 217 215 215 215 215 218 221 222 224 223 214 199 184 172 173 187 216 256 254 244 239 240 242 241 235 232 231 227 225 233 242 247 250 249 249 252 257 262 268 274 278 281 283 282 280 277 277 276 278 279 280 283 284 282 282 281 282 282 279 275 274 276 278 279 277 273
200 197 202 210 212 208 204 203 205 206 204 204 206 206 206 210 211 212 216 216 214 213 212 212 216 220 223 222 203 167 155 157 166 184 201 217 241 255 252 245 246 248 245 240 238 238 235 236 242 247 251 252 250 250 254 261 266 271 276 279 281 283 282 279 278 278 278 281 282 280 281 279 276 276 278 280 280 277 273 271 271 274 277 278 273
194 197 200 207 207 203 203 207 209 208 207 208 208 205 206 210 211 214 217 215 211 210 210 210 210 210 210 199 170 149 143 145 171 197 208 212 221 230 229 227 243 260 263 254 247 244 245 248 250 252 255 255 255 256 259 264 269 272 275 278 279 280 280 279 277 277 279 283 283 280 277 273 271 274 277 278 277 276 275 273 272 276 279 280 277
192 197 198 201 205 203 205 210 211 211 211 211 208 206 210 212 213 215 215 210 209 210 209 205 199 196 193 181 172 171 166 165 187 203 207 212 216 217 213 216 229 251 268 267 259 253 251 251 253 257 259 260 261 263 266 268 270 273 274 275 277 277 277 277 276 276 279 283 282 278 273 270 272 274 274 275 276 275 276 274 274 277 280 282 282
192 196 200 203 201 199 210 218 221 218 216 214 212 214 217 217 215 215 211 207 208 209 204 192 182 182 180 174 174 178 176 186 200 197 196 204 208 209 213 216 222 235 253 262 265 264 259 255 257 260 262 262 264 268 273 274 274 277 277 276 276 276 275 275 274 274 278 280 278 275 271 271 274 272 270 274 278 277 275 274 274 277 281 285 287
190 188 187 180 165 165 195 218 227 228 221 218 217 216 215 212 210 210 207 206 206 202 193 182 172 168 169 171 176 182 188 196 197 190 189 192 193 204 213 213 216 225 239 258 269 272 270 265 264 263 262 264 268 272 277 279 280 281 281 280 279 277 276 275 274 273 277 278 275 272 271 272 271 267 270 278 282 280 278 276 277 280 284 288 290
190 179 176 177 180 186 195 206 217 221 218 218 216 211 206 203 204 206 205 204 201 193 182 173 167 165 169 172 175 178 180 181 179 175 174 174 180 197 205 205 207 212 229 254 267 271 273 273 269 267 265 265 271 276 278 280 285 287 285 282 281 279 277 275 273 274 277 277 275 273 270 269 268 269 275 282 284 283 283 283 285 286 288 291 292
176 165 173 184 187 189 192 201 210 212 214 215 210 203 197 195 199 201 201 198 191 180 173 170 169 169 169 167 166 162 154 151 162 185 191 199 213 215 209 204 203 208 227 248 263 271 278 279 273 271 271 272 276 283 286 286 291 294 292 286 281 278 275 273 272 275 278 278 277 274 270 270 273 276 280 283 284 286 289 292 294 293 293 294 295
141 138 145 154 161 166 175 191 201 204 211 212 204 198 193 191 196 196 194 189 180 173 170 165 162 162 160 158 157 152 144 153 194 210 212 221 227 224 216 210 208 216 233 254 278 290 290 284 276 273 277 285 296 307 306 296 295 298 295 288 281 276 271 270 274 277 280 281 279 275 273 276 280 281 281 282 286 291 295 297 297 299 298 297 299
115 116 118 121 127 136 145 160 175 184 200 207 202 197 192 192 196 193 189 185 176 168 164 157 155 158 157 156 154 150 151 168 183 189 202 219 229 231 227 223 223 230 252 286 303 301 294 285 274 262 256 280 307 316 313 297 289 291 290 284 276 269 266 271 278 280 282 284 281 278 281 283 283 282 282 285 289 295 301 301 301 302 299 297 301
97 97 104 111 115 119 118 121 145 175 196 199 192 189 188 192 193 190 190 186 172 162 160 158 159 160 156 152 150 150 155 162 161 169 203 222 241 252 241 239 250 259 289 312 317 312 297 280 251 220 219 263 290 298 298 284 275 278 282 277 266 263 269 276 280 283 285 285 283 285 289 289 288 287 289 293 295 298 302 303 302 302 298 297 303
64 77 97 105 99 92 96 98 125 179 184 184 182 181 184 188 188 190 192 180 160 155 157 158 159 159 158 157 159 163 168 166 157 140 239 236 260 281 285 293 310 347 356 355 3 2 311 212 193 194 215 254 277 284 280 269 264 267 269 265 262 268 275 280 282 285 286 286 289 297 300 299 299 298 297 298 298 300 303 303 302 301 300 301 304
49 52 66 81 77 72 79 85 110 165 172 180 182 179 180 183 184 186 181 162 152 153 156 158 159 159 163 167 167 168 173 176 185 301 351 306 264 264 277 303 34 43 358 345 19 70 190 196 204 214 230 253 267 265 253 249 251 252 253 258 268 276 281 283 284 284 285 290 299 307 309 309 307 302 298 297 301 305 306 303 302 303 304 305 305
52 48 48 69 82 83 83 83 100 149 166 181 181 172 169 170 169 171 165 157 155 156 156 159 163 166 171 174 170 168 177 190 207 226 75 91 171 182 181 175 169 252 279 277 266 262 241 223 223 233 246 257 258 246 234 234 236 237 247 264 274 281 285 284 281 281 286 296 307 311 311 308 301 297 298 303 309 310 306 302 304 306 308 309 307
74 77 82 95 101 96 90 92 116 156 171 182 178 164 155 156 159 164 164 159 158 159 160 164 168 170 175 177 175 177 187 196 207 217 201 156 161 173 188 214 244 263 273 282 275 245 223 217 227 243 252 250 238 227 223 223 226 239 258 272 277 280 280 277 276 280 289 299 308 309 305 297 291 292 301 309 313 312 308 305 306 308 310 310 310
84 85 85 87 90 91 95 111 145 166 173 179 176 165 156 156 160 164 165 164 164 165 167 168 168 168 172 178 183 190 197 202 214 229 232 222 221 231 239 244 256 268 273 268 247 222 212 220 234 243 243 233 220 214 215 219 233 254 267 271 272 271 268 268 272 281 293 302 306 303 292 280 282 292 302 312 317 316 312 308 308 310 312 314 317
94 94 93 95 105 115 127 142 151 162 169 173 176 174 167 162 164 167 169 171 170 170 169 166 163 164 169 177 186 193 198 206 220 228 228 225 222 228 238 246 255 260 257 250 241 228 224 230 232 231 231 224 213 211 219 231 248 260 263 264 263 259 257 263 271 282 295 300 297 289 272 260 272 287 300 313 319 316 313 311 311 317 321 324 330
108 120 118 119 127 134 141 143 144 157 168 172 177 180 176 171 171 174 178 179 176 171 167 164 165 169 173 176 182 190 199 215 225 222 223 227 220 219 230 239 245 247 245 241 238 234 229 226 225 228 229 222 213 217 229 241 250 254 255 254 251 248 251 260 271 281 287 286 278 264 245 246 263 281 296 311 319 322 327 327 327 335 340 341 344
92 117 119 119 125 131 136 141 150 163 172 176 179 180 179 176 175 177 179 177 173 169 168 169 173 178 182 183 186 191 199 207 212 213 212 212 210 213 219 223 230 236 236 232 228 222 218 218 222 222 217 210 212 224 235 243 250 252 249 244 240 241 247 256 267 274 274 264 245 222 213 230 250 269 290 312 333 348 358 357 355 355 353 351 349
37 81 96 111 128 142 148 152 160 167 172 177 180 182 182 178 175 174 172 165 161 162 166 170 173 176 180 181 180 183 186 187 189 193 190 188 195 205 207 210 219 228 228 226 222 218 221 228 227 218 210 208 217 232 244 249 250 246 241 239 237 237 244 251 258 264 257 227 207 199 206 226 241 267 310 344 353 356 2 4 4 4 1 357 353
11 38 30 111 157 165 162 158 159 163 168 174 177 178 179 178 173 170 165 160 160 164 167 170 171 170 170 170 170 175 180 182 185 189 186 183 190 203 205 209 219 225 226 228 229 231 240 243 231 217 212 215 226 243 250 248 242 236 231 231 231 233 238 243 246 242 213 194 194 198 208 220 222 354 10 8 2 357 355 355 357 2 3 358 351
319 274 247 214 181 171 162 154 153 157 161 167 168 169 173 174 172 169 166 164 164 164 161 160 161 160 160 161 163 168 174 182 196 201 193 187 190 200 211 222 230 231 233 237 240 242 245 240 225 216 217 222 229 240 245 243 237 228 222 224 227 227 227 230 230 206 183 184 192 194 190 182 144 56 28 15 5 358 351 347 349 354 357 356 349
Height
785 788 790 791 793 795 797 799 801 803 804 806 807 809 811 813 815 816 818 820 821 823 825 826 827 829 831 832 833 834 835 835 836 837 837 838 838 838 838 839 840 840 841 842 843 844 845 845 845 845 845 845 845 845 845 845 845 845 845 845 845 844 844 844 844 844 843 842 841 840 840 840 840 840 840 839 839 839 838 838 838 838 838 837 836
786 789 789 791 792 794 796 798 799 801 802 804 805 807 809 811 813 814 816 818 819 821 823 824 826 828 829 830 832 833 833 834 835 836 836 837 837 837 837 838 839 840 841 842 843 843 844 844 845 845 845 845 845 844 844 844 844 844 844 844 844 844 843 843 844 843 843 843 842 841 840 840 840 840 840 839 839 838 838 838 838 838 838 837 837
788 788 788 789 790 792 794 796 797 799 800 802 803 805 807 809 811 812 814 815 817 819 821 822 825 827 828 829 831 832 832 833 833 834 835 835 836 836 837 837 839 839 840 841 842 843 843 844 844 844 844 844 844 844 844 844 844 844 844 843 843 843 843 843 843 843 843 843 843 843 842 842 841 840 840 839 839 838 837 837 837 837 837 837 836
789 787 787 788 789 791 792 793 795 797 799 801 802 804 806 807 809 811 812 813 815 817 819 821 823 825 827 828 829 830 831 831 832 833 833 834 835 835 836 837 838 839 840 840 841 842 842 843 843 843 843 843 843 843 843 843 843 843 843 843 843 843 843 843 843 843 843 842 842 844 844 845 844 842 840 839 839 838 837 837 837 836 836 836 835
787 787 786 786 787 788 789 791 793 795 797 798 800 802 803 805 807 809 810 811 813 815 817 819 822 824 825 827 828 829 829 830 831 831 831 832 833 834 835 836 837 838 839 840 840 841 841 841 842 842 842 842 842 842 843 843 843 842 842 842 842 842 842 843 843 842 842 842 842 843 844 845 845 844 842 840 839 838 838 837 837 836 835 835 834
782 782 783 784 785 786 788 789 791 792 793 795 797 800 802 804 806 807 809 810 812 813 815 818 819 821 823 824 826 827 828 828 829 829 830 831 831 832 834 835 836 837 838 839 839 840 840 840 840 841 841 841 841 842 842 842 842 842 842 841 841 842 842 842 842 842 842 841 841 842 843 844 843 843 843 842 839 838 838 837 837 836 835 834 834
779 779 779 781 782 784 785 786 788 789 790 793 795 798 800 802 804 806 807 808 810 812 814 816 817 819 821 822 823 824 825 826 827 828 828 829 830 831 832 833 834 836 836 837 838 839 839 839 840 840 840 841 841 841 841 842 842 842 842 841 841 841 841 841 841 841 841 841 841 841 841 842 842 842 843 844 843 840 838 837 837 836 835 834 833
775 776 776 777 778 779 781 782 784 785 788 791 793 796 798 800 802 803 805 807 808 810 812 813 815 817 818 820 821 822 823 824 825 826 827 828 829 830 831 832 833 834 836 837 837 838 838 839 839 839 840 841 841 841 841 841 842 841 841 841 841 841 841 841 841 841 841 841 841 841 841 841 841 841 842 843 844 843 839 837 836 835 835 834 833
769 772 772 772 773 773 775 778 781 784 786 789 791 793 796 798 800 801 803 804 806 808 810 811 813 814 816 817 818 820 821 822 823 824 825 826 827 828 829 831 832 833 835 836 836 837 838 838 838 839 839 840 840 840 841 841 841 841 841 841 840 840 840 840 840 840 841 841 841 841 841 841 841 841 841 841 842 843 841 838 836 835 834 834 833
764 766 767 768 769 770 773 776 779 782 785 787 789 791 793 795 797 798 799 801 803 805 807 808 810 811 813 814 816 817 818 820 821 822 823 824 826 827 828 829 831 832 833 834 836 836 837 837 837 838 838 839 839 840 840 840 840 840 840 840 840 840 840 840 840 840 840 840 841 841 841 841 841 841 841 841 841 841 841 839 837 836 835 834 833
761 762 763 764 766 768 772 775 777 780 783 785 787 788 790 792 794 795 796 798 800 802 803 805 807 808 810 812 813 815 816 817 818 820 821 822 824 825 827 828 830 831 832 833 834 835 836 836 837 837 837 838 838 839 839 839 839 840 840 840 840 840 840 840 840 840 840 840 840 840 841 841 841 841 840 840 841 841 841 839 837 836 835 834 833
757 759 760 761 764 767 771 772 774 777 780 782 784 786 788 789 791 792 793 795 796 798 800 801 803 805 807 809 810 812 813 815 816 817 819 820 822 824 825 827 829 830 831 832 833 834 834 835 836 836 836 837 837 838 838 839 839 839 839 839 840 839 839 840 840 840 840 840 840 840 840 840 840 840 840 840 840 839 840 839 838 837 835 833 833
752 754 756 758 761 763 766 768 771 774 776 778 780 783 785 786 788 788 789 791 793 795 796 798 800 801 803 805 807 809 810 812 813 814 816 818 820 822 824 825 827 828 829 830 831 832 833 834 834 835 835 836 836 837 837 838 838 839 839 839 839 839 839 839 839 839 839 839 839 839 839 839 839 839 839 838 838 838 838 838 838 837 836 834 832
746 748 750 753 755 757 760 763 767 770 772 775 777 779 782 783 784 785 785 788 789 791 792 794 795 797 800 802 803 805 807 809 810 812 814 816 818 820 822 823 825 826 827 829 829 830 831 832 833 834 834 835 835 836 836 837 837 838 838 838 838 838 838 838 839 839 839 839 839 839 838 838 838 838 838 837 837 837 837 836 836 836 836 835 832
741 743 745 746 749 752 755 759 762 766 768 771 774 776 778 779 780 781 781 783 785 787 788 790 792 794 796 798 800 802 804 806 808 809 811 813 815 817 819 821 822 824 825 827 828 828 829 830 831 832 833 834 834 834 835 835 836 836 837 837 837 837 837 837 838 838 838 838 838 838 837 837 837 837 836 836 836 835 835 835 835 835 835 834 832
738 739 741 742 744 747 751 754 758 762 765 768 770 772 774 775 776 777 778 780 782 783 784 786 789 791 793 795 797 799 801 803 805 807 809 811 813 814 816 818 820 822 823 825 826 826 828 829 830 830 831 832 832 833 834 834 835 835 835 836 836 836 836 836 836 836 836 837 836 836 836 835 836 835 835 835 835 834 834 833 833 833 834 834 832
733 735 736 738 741 744 746 750 754 758 762 764 766 768 769 770 772 773 774 777 778 779 781 783 786 788 790 793 795 797 799 801 803 805 807 809 811 812 814 816 818 820 822 823 824 825 826 827 828 829 830 830 831 831 832 833 833 834 834 834 835 835 835 835 835 835 835 835 835 835 834 834 834 834 834 834 833 833 833 833 832 832 832 832 831
728 730 732 734 736 739 741 745 748 752 756 758 760 763 765 767 769 771 772 773 773 775 778 781 783 786 788 790 793 795 796 798 800 803 805 807 809 811 812 814 816 819 820 821 823 823 824 826 826 827 828 829 829 830 831 831 832 832 833 833 833 834 834 834 834 834 834 834 833 833 832 832 832 832 832 832 832 831 831 831 830 830 829 829 828
726 727 730 731 732 734 737 740 744 747 751 753 756 760 763 765 767 768 769 769 771 775 777 779 781 783 786 787 790 791 793 795 797 799 801 803 806 808 810 812 814 817 819 820 821 822 823 824 825 826 827 828 828 828 829 830 830 831 831 832 832 832 832 832 833 833 833 832 831 831 830 830 829 829 829 829 829 829 829 828 828 827 826 825 824
721 723 725 726 727 729 732 735 739 742 746 749 753 757 759 761 763 764 766 768 771 773 774 776 778 780 782 784 785 787 788 790 792 794 797 799 802 805 808 811 813 815 817 819 820 821 822 822 823 825 826 826 827 827 828 828 828 829 829 830 830 830 831 831 831 831 831 830 829 829 828 827 827 827 826 826 826 825 825 825 825 824 824 823 822
716 718 719 720 723 726 728 731 734 737 741 745 749 753 754 756 759 760 763 765 767 769 771 773 774 776 778 779 781 783 785 787 790 792 793 795 799 803 806 810 812 814 816 817 819 820 820 821 822 823 825 825 826 826 826 826 827 827 828 828 828 828 829 829 830 830 829 829 828 827 826 825 825 824 823 823 823 823 823 822 822 821 821 821 821
711 711 713 717 719 722 725 728 732 736 739 742 746 748 750 752 754 756 758 760 762 764 766 768 770 772 774 775 778 780 782 784 787 789 791 792 795 798 803 808 810 812 814 815 817 818 818 819 820 822 823 824 825 825 825 825 825 825 826 826 826 826 827 827 827 827 827 827 826 825 824 823 823 822 821 821 820 820 820 819 819 819 818 818 818
705 707 710 713 714 718 722 725 728 731 733 737 740 742 744 746 748 751 753 755 757 759 762 765 768 769 770 772 774 777 778 780 782 784 786 788 791 794 798 803 806 809 811 812 814 815 816 818 819 820 822 823 824 824 823 823 823 824 824 824 824 824 824 825 825 825 825 825 824 823 822 822 821 820 819 819 818 817 817 817 816 816 816 815 815
704 706 707 709 712 715 719 721 724 727 729 732 734 736 738 740 744 747 749 751 753 756 760 763 765 766 767 769 771 772 773 774 776 779 782 786 790 793 795 798 802 804 806 808 810 812 814 815 816 818 820 821 822 822 822 822 821 822 822 822 822 822 822 823 823 823 823 823 822 821 820 820 819 818 817 816 816 815 815 814 814 813 813 812 812
704 705 706 708 711 713 716 717 720 723 725 727 729 732 735 738 741 744 746 748 750 753 757 759 761 763 765 767 769 770 770 771 774 777 780 783 788 791 793 796 799 800 802 804 806 809 811 812 813 815 817 819 820 820 820 820 820 820 820 820 820 820 821 821 821 821 821 820 820 819 818 818 817 815 815 814 813 813 812 811 811 810 810 809 808
701 703 704 706 708 710 712 714 717 719 721 724 726 730 733 736 739 741 743 744 747 750 752 754 756 758 761 764 767 769 770 772 774 777 781 784 787 790 793 796 798 799 800 801 803 805 807 809 811 813 815 817 818 818 818 818 818 818 818 818 818 818 818 819 819 819 818 818 818 817 816 816 815 813 812 812 811 810 810 809 808 807 807 806 805
699 701 703 705 707 708 709 711 713 715 718 721 723 726 730 733 735 736 738 740 743 745 747 750 752 755 760 765 768 768 769 771 774 778 784 788 789 791 795 797 799 799 799 799 800 801 803 805 808 810 813 815 815 816 816 816 817 817 817 817 816 816 816 816 816 816 816 816 815 814 814 813 813 811 810 809 809 808 807 806 805 805 804 803 802
699 701 702 703 704 704 706 708 710 713 716 718 721 724 726 729 730 732 734 736 738 741 743 746 749 752 756 759 761 762 764 770 776 781 786 790 790 792 794 798 801 801 799 799 798 799 800 802 804 807 810 812 813 813 814 814 815 815 815 815 815 815 814 814 814 814 813 813 812 811 811 810 810 809 808 807 806 805 805 804 803 802 801 800 799
697 698 699 701 701 702 704 706 707 710 713 716 719 722 724 726 727 729 731 732 734 737 740 743 747 750 752 754 756 759 765 773 779 783 788 792 794 795 794 795 799 802 801 799 799 799 799 800 802 804 807 809 810 811 812 812 813 813 813 813 813 813 812 812 812 811 810 809 809 808 808 807 807 806 805 805 803 803 802 801 800 800 799 798 796
692 694 697 697 698 699 701 704 706 708 710 713 715 717 719 721 722 725 727 728 731 734 738 743 747 750 752 754 758 762 766 770 774 781 787 792 795 798 797 796 799 801 801 799 799 799 798 798 800 802 805 807 808 808 809 810 811 811 811 811 811 810 810 810 809 808 807 806 806 805 805 805 804 803 802 802 801 800 799 798 797 797 796 795 794
689 692 694 695 696 699 701 703 704 705 707 709 711 713 715 717 719 721 722 724 728 733 737 740 743 746 750 754 758 762 765 766 769 776 782 784 789 794 797 798 800 800 799 798 799 799 798 798 799 801 803 804 805 806 807 808 808 809 809 809 808 808 808 807 806 805 804 803 803 803 803 802 801 800 799 799 797 796 795 795 794 794 793 792 791
687 690 691 693 695 696 698 699 700 702 704 706 708 711 713 714 716 717 719 723 728 731 733 735 736 741 746 750 755 759 761 764 768 773 775 777 781 785 789 792 794 795 796 796 797 797 796 797 798 799 800 802 803 804 805 806 806 806 806 806 806 805 804 804 803 802 801 801 801 800 800 799 798 798 797 796 795 793 793 792 792 791 791 790 788
683 685 687 689 690 691 693 694 696 699 701 704 707 709 710 711 714 717 720 725 727 728 730 733 736 739 742 745 749 752 753 757 763 767 770 773 776 778 780 782 783 787 790 792 794 794 794 795 796 797 798 799 800 801 802 803 803 803 803 803 802 802 801 800 800 799 799 798 798 797 797 796 796 795 795 793 792 791 790 789 789 788 787 787 786
680 682 684 686 688 690 692 694 697 700 702 705 708 709 710 713 716 719 721 723 724 726 730 733 736 739 740 742 746 748 750 754 758 761 764 768 770 772 773 775 776 780 785 787 789 791 792 793 794 795 796 797 797 798 799 800 800 799 800 800 799 798 797 796 796 796 796 796 795 795 794 794 793 793 792 791 790 789 788 787 786 785 785 784 783
679 680 683 686 688 691 693 695 698 701 703 704 705 706 710 713 716 718 719 720 722 725 728 732 736 739 742 744 746 748 749 751 755 758 760 762 764 766 769 771 773 777 782 784 786 787 789 790 792 793 794 794 795 796 796 796 796 796 797 797 796 795 794 793 793 793 793 793 793 793 792 791 791 791 790 789 788 786 785 784 784 783 783 782 781
677 678 682 684 686 688 690 693 696 698 700 701 703 705 709 712 714 716 717 719 722 725 728 731 735 739 741 743 745 747 749 753 758 761 760 761 763 764 766 768 771 774 778 781 782 784 785 788 790 791 791 792 792 793 793 793 793 794 794 793 793 792 791 790 790 790 791 791 791 791 790 789 789 789 788 787 786 784 783 782 782 782 781 780 779
676 677 679 681 684 686 688 691 694 697 699 701 703 705 708 710 713 715 716 719 722 725 728 731 734 738 742 745 748 751 755 761 765 765 764 764 767 766 765 766 769 772 775 778 780 781 783 786 788 789 789 789 790 790 791 791 791 791 791 791 790 790 788 788 788 788 789 789 790 789 789 788 788 787 787 785 784 783 782 781 781 781 779 778 777
676 677 678 681 684 686 689 693 695 698 700 701 703 705 708 710 712 713 716 718 721 724 727 730 735 739 743 747 751 754 759 763 764 763 762 765 767 767 766 767 769 771 773 776 778 779 782 784 785 787 788 789 789 789 789 789 790 790 790 789 788 787 786 786 786 786 787 787 788 788 787 787 786 786 785 784 782 781 781 781 780 779 778 776 775
676 676 677 681 685 688 691 694 697 699 700 701 703 706 708 710 712 713 715 717 719 723 726 730 735 738 742 746 749 753 757 759 759 759 761 764 766 768 769 771 772 773 774 775 776 777 778 780 782 784 785 786 788 788 788 790 790 790 789 788 786 785 784 784 784 785 785 785 786 786 786 785 785 784 783 782 781 780 780 780 779 778 777 775 774
675 674 676 680 686 689 691 694 697 699 700 702 704 706 709 711 713 715 715 717 720 724 726 730 733 736 741 744 746 747 749 751 752 753 754 758 764 767 770 772 772 773 773 773 773 774 775 777 779 781 782 783 785 786 787 789 790 788 787 785 784 783 782 782 782 783 783 784 784 784 784 783 783 783 781 780 779 778 778 778 777 777 776 774 772
675 676 678 682 686 690 692 694 697 699 701 703 705 707 710 712 713 715 717 719 723 726 727 730 733 736 739 740 741 742 745 749 753 753 752 754 760 763 765 766 767 768 769 770 770 771 773 774 776 777 778 779 781 782 783 784 785 785 784 783 781 780 780 779 780 780 781 782 782 782 782 782 782 781 779 778 777 777 777 777 776 776 774 773 771
677 680 682 685 688 692 694 696 697 699 701 703 705 707 709 712 714 716 718 721 724 726 728 730 733 735 737 738 740 744 748 752 756 756 755 755 758 759 759 760 762 764 766 767 767 768 769 770 771 772 773 774 776 778 778 779 780 781 781 780 779 778 777 777 778 779 779 780 780 780 780 780 780 779 778 776 776 776 776 775 775 774 773 771 770
682 685 688 690 693 696 696 697 698 700 702 704 706 708 710 713 715 718 720 722 723 725 727 729 731 733 735 737 740 744 748 752 754 755 755 756 757 758 757 758 760 761 762 761 761 764 766 769 770 770 770 771 773 774 775 776 778 779 778 777 776 776 775 775 776 777 778 778 778 778 779 779 778 777 776 775 775 775 775 774 773 772 771 770 768
687 690 692 694 696 696 695 696 699 701 703 705 706 708 711 713 715 718 720 722 723 724 726 727 729 731 733 736 739 742 745 748 750 751 752 753 755 755 755 756 757 758 757 756 758 762 765 768 769 769 769 769 771 772 773 775 776 777 776 775 774 774 774 774 775 776 776 776 777 777 778 777 777 776 775 774 774 774 773 773 772 771 770 768 767
688 690 690 691 693 694 695 698 700 701 703 705 706 708 710 713 715 717 719 720 721 723 724 726 729 731 733 735 738 741 743 744 746 747 748 748 750 751 751 753 754 754 755 756 758 761 764 765 766 767 767 769 770 771 773 774 774 774 773 773 773 773 773 773 773 774 774 775 776 776 777 776 775 774 774 774 773 773 772 771 770 769 768 767 766
688 688 688 689 691 693 696 698 700 702 704 706 707 708 709 712 714 716 718 719 720 722 724 726 728 730 733 735 737 740 741 742 744 745 744 743 744 746 748 750 751 752 754 756 756 758 760 762 763 764 766 768 769 770 771 772 772 772 772 772 771 771 771 772 772 772 773 774 775 775 775 775 774 773 773 773 772 772 771 770 769 768 767 766 765
688 687 687 688 690 692 695 697 700 703 704 706 707 707 709 711 713 715 716 718 719 720 722 725 727 729 731 734 736 737 738 740 742 743 742 741 741 743 744 746 747 749 752 753 754 755 757 759 761 763 765 767 767 768 769 769 770 770 770 770 769 769 770 770 770 771 772 773 774 774 774 773 773 773 773 772 771 770 769 769 768 767 765 765 764
689 687 686 687 688 692 695 697 700 702 704 706 707 708 709 711 712 713 715 716 717 719 720 722 725 727 729 731 733 734 734 736 739 739 738 739 740 741 741 742 744 746 748 750 750 752 754 756 759 761 763 765 766 766 767 767 767 767 767 768 768 768 768 769 770 771 772 772 773 773 773 773 772 772 772 771 771 769 768 767 766 765 764 763 762
692 690 689 689 691 693 695 696 699 701 703 705 706 708 709 709 711 712 714 715 717 718 719 721 722 724 726 727 728 729 730 732 735 736 736 736 737 738 739 741 743 744 746 746 748 749 752 754 756 759 761 762 763 764 765 765 765 765 765 766 766 766 767 768 769 770 770 771 771 772 772 772 772 772 771 770 769 768 767 766 765 764 762 762 761
695 693 692 693 694 696 696 697 698 700 702 704 705 706 708 708 709 710 711 713 714 715 717 719 721 722 723 724 726 728 730 732 733 734 733 734 735 736 738 740 742 743 745 746 748 749 751 753 755 757 759 760 761 762 763 763 763 763 763 764 764 765 766 767 768 769 769 770 771 771 771 771 771 771 770 769 768 767 766 765 764 762 761 760 759
697 695 696 696 698 698 699 699 699 699 701 703 704 705 706 707 708 710 710 710 711 712 715 718 720 722 723 725 726 729 731 732 734 735 735 735 736 738 739 741 741 743 745 747 748 749 750 752 753 755 757 758 760 761 761 761 761 761 762 762 763 764 765 766 767 768 768 769 770 770 770 770 770 770 769 768 767 766 765 764 762 760 759 758 758